User: anonymous   Login
Location: Franzen
(48.6167°N, 15.3833°E)
Time: 02:21:42
(UTC+00:00)
Language:

Spot 4 - Orbit

View from above orbital plane
View from above orbital plane
View from above satellite
View from above satellite

Ground track
Ground track

The orbit data is extracted from the following two-line orbital elements,

1 25260U 98017A   21174.51152785  .00000023  00000-0  16336-4 0  9997
2 25260  98.2818 266.2403 0014305  80.4306 279.8506 14.53680024214760
Epoch (UTC): 23 June 2021 12:16:36
Eccentricity: 0.0014305
inclination: 98.2818°
perigee height: 703 km
apogee height: 724 km
right ascension of ascending node: 266.2403°
argument of perigee: 80.4306°
revolutions per day: 14.53680024
mean anomaly at epoch: 279.8506°
orbit number at epoch: 21476

The dashed part of the orbit path shows where the satellite is in the earth's shadow,  

DLR